EA3GKP-7 Weather Reports


time (UTC)temp
F
wind
direction
speed
knots
gust
knots
rain 1hr
in
rain 24hr
in
rain mn
in
humidity
%
barometer
mb
20260507142225 67 0.0 0.0 0.00 0.00 0.00 10 1016.6
20260507141725 67 0.0 0.0 0.00 0.00 0.00 10 1016.6
20260507141225 67 0.0 0.0 0.00 0.00 0.00 10 1016.7
20260507140725 68 0.0 0.0 0.00 0.00 0.00 10 1016.9
20260507140224 68 0.0 0.0 0.00 0.00 0.00 10 1016.8
20260507135724 68 0.0 0.0 0.00 0.00 0.00 10 1016.9
20260507135225 68 0.0 0.0 0.00 0.00 0.00 10 1016.8
20260507134724 68 0.0 0.0 0.00 0.00 0.00 98 1017.0
20260507134224 67 0.0 0.0 0.00 0.00 0.00 10 1017.2
20260507133725 68 0.0 0.0 0.00 0.00 0.00 96 1017.2
20260507133225 68 0.0 0.0 0.00 0.00 0.00 99 1017.3
20260507132724 68 0.0 0.0 0.00 0.00 0.00 10 1017.3
20260507132225 67 0.0 0.0 0.00 0.00 0.00 10 1017.3
20260507131724 68 0.0 0.0 0.00 0.00 0.00 10 1017.3
20260507131224 67 0.0 0.0 0.00 0.00 0.00 10 1017.4
20260507130724 68 0.0 0.0 0.00 0.00 0.00 10 1017.5
20260507130224 68 0.0 0.0 0.00 0.00 0.00 99 1017.5
20260507125724 68 0.0 0.0 0.00 0.00 0.00 10 1017.5
20260507125224 68 0.0 0.0 0.00 0.00 0.00 10 1017.6
20260507124725 68 0.0 0.0 0.00 0.00 0.00 10 1017.8
20260507124224 69 0.0 0.0 0.00 0.00 0.00 10 1017.7
20260507123724 69 0.0 0.0 0.00 0.00 0.00 10 1017.7
20260507123224 69 0.0 0.0 0.00 0.00 0.00 10 1017.8
20260507122724 69 0.0 0.0 0.00 0.00 0.00 10 1017.8
20260507122224 69 0.0 0.0 0.00 0.00 0.00 98 1017.9
20260507121724 69 0.0 0.0 0.00 0.00 0.00 10 1017.7
20260507121224 70 0.0 0.0 0.00 0.00 0.00 97 1017.8
20260507120724 69 0.0 0.0 0.00 0.00 0.00 10 1017.9
20260507120224 69 0.0 0.0 0.00 0.00 0.00 99 1017.9
20260507115724 70 0.0 0.0 0.00 0.00 0.00 93 1017.9
20260507115224 70 0.0 0.0 0.00 0.00 0.00 95 1017.9
20260507114724 71 0.0 0.0 0.00 0.00 0.00 97 1018.0
20260507114224 70 0.0 0.0 0.00 0.00 0.00 10 1017.9
20260507113724 68 0.0 0.0 0.00 0.00 0.00 10 1018.0
20260507113226 69 0.0 0.0 0.00 0.00 0.00 10 1018.0
20260507112724 69 0.0 0.0 0.00 0.00 0.00 10 1018.0
20260507112224 69 0.0 0.0 0.00 0.00 0.00 10 1018.1
20260507111724 70 0.0 0.0 0.00 0.00 0.00 99 1017.9
20260507111224 70 0.0 0.0 0.00 0.00 0.00 10 1018.1
20260507110724 71 0.0 0.0 0.00 0.00 0.00 99 1018.0
20260507110224 71 0.0 0.0 0.00 0.00 0.00 95 1018.0
20260507105724 70 0.0 0.0 0.00 0.00 0.00 98 1018.2
20260507105224 70 0.0 0.0 0.00 0.00 0.00 99 1018.3
20260507104724 71 0.0 0.0 0.00 0.00 0.00 98 1018.1
20260507104224 69 0.0 0.0 0.00 0.00 0.00 10 1018.3
20260507103724 69 0.0 0.0 0.00 0.00 0.00 10 1018.2
20260507103224 70 0.0 0.0 0.00 0.00 0.00 10 1018.4
20260507102724 69 0.0 0.0 0.00 0.00 0.00 10 1018.4
20260507102224 69 0.0 0.0 0.00 0.00 0.00 10 1018.6
20260507101724 71 0.0 0.0 0.00 0.00 0.00 97 1018.5
20260507101224 70 0.0 0.0 0.00 0.00 0.00 10 1018.6
20260507100724 70 0.0 0.0 0.00 0.00 0.00 94 1018.6
20260507100224 70 0.0 0.0 0.00 0.00 0.00 94 1018.6
20260507095724 70 0.0 0.0 0.00 0.00 0.00 93 1018.6
20260507095224 70 0.0 0.0 0.00 0.00 0.00 95 1018.7
20260507094724 71 0.0 0.0 0.00 0.00 0.00 95 1018.5
20260507094224 67 0.0 0.0 0.00 0.00 0.00 10 1018.6
20260507093724 69 0.0 0.0 0.00 0.00 0.00 10 1018.6
20260507093224 71 0.0 0.0 0.00 0.00 0.00 96 1018.5
20260507092724 68 0.0 0.0 0.00 0.00 0.00 10 1018.6
20260507092224 69 0.0 0.0 0.00 0.00 0.00 10 1018.6
20260507091724 69 0.0 0.0 0.00 0.00 0.00 10 1018.4
20260507091224 69 0.0 0.0 0.00 0.00 0.00 10 1018.5
20260507090724 68 0.0 0.0 0.00 0.00 0.00 10 1018.5
20260507090224 69 0.0 0.0 0.00 0.00 0.00 10 1018.5
20260507085724 69 0.0 0.0 0.00 0.00 0.00 10 1018.2
20260507085224 68 0.0 0.0 0.00 0.00 0.00 10 1018.2
20260507084724 68 0.0 0.0 0.00 0.00 0.00 10 1018.3
20260507084224 67 0.0 0.0 0.00 0.00 0.00 10 1018.3
20260507083724 66 0.0 0.0 0.00 0.00 0.00 10 1018.4
20260507083224 66 0.0 0.0 0.00 0.00 0.00 10 1018.5
20260507082724 66 0.0 0.0 0.00 0.00 0.00 10 1018.4
20260507082224 65 0.0 0.0 0.00 0.00 0.00 10 1018.5
20260507081724 65 0.0 0.0 0.00 0.00 0.00 10 1018.4
20260507081224 66 0.0 0.0 0.00 0.00 0.00 10 1018.4
20260507080724 65 0.0 0.0 0.00 0.00 0.00 10 1018.3
20260507080224 65 0.0 0.0 0.00 0.00 0.00 10 1018.3
20260507075724 65 0.0 0.0 0.00 0.00 0.00 10 1018.5
20260507075224 66 0.0 0.0 0.00 0.00 0.00 10 1018.4
20260507074724 66 0.0 0.0 0.00 0.00 0.00 10 1018.4
20260507074224 66 0.0 0.0 0.00 0.00 0.00 10 1018.4
20260507073724 67 0.0 0.0 0.00 0.00 0.00 10 1018.4
20260507073224 66 0.0 0.0 0.00 0.00 0.00 10 1018.5
20260507072724 66 0.0 0.0 0.00 0.00 0.00 10 1018.5
20260507072224 66 0.0 0.0 0.00 0.00 0.00 10 1018.5
20260507071724 67 0.0 0.0 0.00 0.00 0.00 10 1018.4
20260507071224 67 0.0 0.0 0.00 0.00 0.00 10 1018.4
20260507070724 66 0.0 0.0 0.00 0.00 0.00 10 1018.4
20260507070224 66 0.0 0.0 0.00 0.00 0.00 10 1018.3
20260507065724 65 0.0 0.0 0.00 0.00 0.00 10 1018.3
20260507065224 65 0.0 0.0 0.00 0.00 0.00 10 1018.4
20260507064724 65 0.0 0.0 0.00 0.00 0.00 10 1018.2
20260507064224 65 0.0 0.0 0.00 0.00 0.00 10 1018.1
20260507063724 65 0.0 0.0 0.00 0.00 0.00 10 1018.1
20260507063224 66 0.0 0.0 0.00 0.00 0.00 10 1018.1
20260507062724 65 0.0 0.0 0.00 0.00 0.00 10 1018.0
20260507062224 65 0.0 0.0 0.00 0.00 0.00 10 1018.0
20260507061724 64 0.0 0.0 0.00 0.00 0.00 10 1017.9
20260507061224 64 0.0 0.0 0.00 0.00 0.00 10 1017.9
20260507060724 64 0.0 0.0 0.00 0.00 0.00 10 1017.9
20260507060224 63 0.0 0.0 0.00 0.00 0.00 10 1017.8
20260507055724 63 0.0 0.0 0.00 0.00 0.00 10 1017.8
20260507055224 63 0.0 0.0 0.00 0.00 0.00 10 1017.8
20260507054724 63 0.0 0.0 0.00 0.00 0.00 10 1017.8
20260507054224 63 0.0 0.0 0.00 0.00 0.00 10 1017.7
20260507053724 62 0.0 0.0 0.00 0.00 0.00 10 1017.7
20260507053224 62 0.0 0.0 0.00 0.00 0.00 10 1017.7
20260507052724 62 0.0 0.0 0.00 0.00 0.00 10 1017.6
20260507052224 62 0.0 0.0 0.00 0.00 0.00 10 1017.7
20260507051724 62 0.0 0.0 0.00 0.00 0.00 10 1017.6
20260507051224 62 0.0 0.0 0.00 0.00 0.00 10 1017.5
20260507050724 62 0.0 0.0 0.00 0.00 0.00 10 1017.5
20260507050224 62 0.0 0.0 0.00 0.00 0.00 10 1017.4
20260507045724 62 0.0 0.0 0.00 0.00 0.00 10 1017.2
20260507045224 62 0.0 0.0 0.00 0.00 0.00 10 1017.3
20260507044724 62 0.0 0.0 0.00 0.00 0.00 10 1017.3
20260507044224 62 0.0 0.0 0.00 0.00 0.00 10 1017.3
20260507043724 62 0.0 0.0 0.00 0.00 0.00 10 1017.3
20260507043224 62 0.0 0.0 0.00 0.00 0.00 10 1017.3
20260507042724 63 0.0 0.0 0.00 0.00 0.00 10 1017.3
20260507042224 63 0.0 0.0 0.00 0.00 0.00 10 1017.3
20260507041724 62 0.0 0.0 0.00 0.00 0.00 10 1017.3
20260507041224 62 0.0 0.0 0.00 0.00 0.00 10 1017.2
20260507040724 63 0.0 0.0 0.00 0.00 0.00 10 1017.2
20260507040224 62 0.0 0.0 0.00 0.00 0.00 10 1017.3
20260507035724 62 0.0 0.0 0.00 0.00 0.00 10 1017.2
20260507035224 63 0.0 0.0 0.00 0.00 0.00 10 1017.3
20260507034724 63 0.0 0.0 0.00 0.00 0.00 10 1017.2
20260507034224 63 0.0 0.0 0.00 0.00 0.00 10 1017.3
20260507033724 63 0.0 0.0 0.00 0.00 0.00 10 1017.2
20260507033223 63 0.0 0.0 0.00 0.00 0.00 10 1017.3
20260507032724 63 0.0 0.0 0.00 0.00 0.00 10 1017.4
20260507032249 63 0.0 0.0 0.00 0.00 0.00 10 1017.4
20260507031724 63 0.0 0.0 0.00 0.00 0.00 10 1017.4
20260507031224 63 0.0 0.0 0.00 0.00 0.00 10 1017.4
20260507030724 63 0.0 0.0 0.00 0.00 0.00 10 1017.4
20260507030223 63 0.0 0.0 0.00 0.00 0.00 10 1017.4
20260507025724 63 0.0 0.0 0.00 0.00 0.00 10 1017.4
20260507025223 63 0.0 0.0 0.00 0.00 0.00 10 1017.5
20260507024724 63 0.0 0.0 0.00 0.00 0.00 10 1017.4
20260507024224 63 0.0 0.0 0.00 0.00 0.00 10 1017.4
20260507023724 63 0.0 0.0 0.00 0.00 0.00 10 1017.3
20260507023224 63 0.0 0.0 0.00 0.00 0.00 10 1017.3
20260507022723 63 0.0 0.0 0.00 0.00 0.00 10 1017.4
20260507022224 63 0.0 0.0 0.00 0.00 0.00 10 1017.3
20260507021723 63 0.0 0.0 0.00 0.00 0.00 10 1017.4
20260507021223 63 0.0 0.0 0.00 0.00 0.00 10 1017.3
20260507020723 63 0.0 0.0 0.00 0.00 0.00 10 1017.2
20260507020223 63 0.0 0.0 0.00 0.00 0.00 10 1017.3
20260507015723 63 0.0 0.0 0.00 0.00 0.00 10 1017.3
20260507015223 63 0.0 0.0 0.00 0.00 0.00 10 1017.4
20260507014723 63 0.0 0.0 0.00 0.00 0.00 10 1017.4
20260507014223 64 0.0 0.0 0.00 0.00 0.00 10 1017.4
20260507013723 63 0.0 0.0 0.00 0.00 0.00 10 1017.4
20260507013223 64 0.0 0.0 0.00 0.00 0.00 10 1017.5
20260507012723 64 0.0 0.0 0.00 0.00 0.00 10 1017.4
20260507012223 64 0.0 0.0 0.00 0.00 0.00 10 1017.5
20260507011723 64 0.0 0.0 0.00 0.00 0.00 10 1017.5
20260507011223 64 0.0 0.0 0.00 0.00 0.00 10 1017.5
20260507010723 64 0.0 0.0 0.00 0.00 0.00 10 1017.4
20260507010223 64 0.0 0.0 0.00 0.00 0.00 10 1017.5
20260507005723 64 0.0 0.0 0.00 0.00 0.00 10 1017.6
20260507005223 63 0.0 0.0 0.00 0.00 0.00 10 1017.6
20260507004723 64 0.0 0.0 0.00 0.00 0.00 10 1017.6
20260507004223 64 0.0 0.0 0.00 0.00 0.00 10 1017.7
20260507003723 64 0.0 0.0 0.00 0.00 0.00 10 1017.7
20260507003223 63 0.0 0.0 0.00 0.00 0.00 10 1017.7
20260507002723 64 0.0 0.0 0.00 0.00 0.00 10 1017.6
20260507002223 64 0.0 0.0 0.00 0.00 0.00 10 1017.7
20260507001723 64 0.0 0.0 0.00 0.00 0.00 10 1017.7
20260507001223 64 0.0 0.0 0.00 0.00 0.00 10 1017.7
20260507000723 64 0.0 0.0 0.00 0.00 0.00 10 1017.8
20260507000223 64 0.0 0.0 0.00 0.00 0.00 10 1017.8
20260506235723 64 0.0 0.0 0.00 0.00 0.00 10 1017.8
20260506235223 64 0.0 0.0 0.00 0.00 0.00 10 1017.8
20260506234723 64 0.0 0.0 0.00 0.00 0.00 10 1017.8
20260506234223 64 0.0 0.0 0.00 0.00 0.00 10 1017.8
20260506233723 64 0.0 0.0 0.00 0.00 0.00 10 1017.8
20260506233223 65 0.0 0.0 0.00 0.00 0.00 10 1017.7
20260506232723 65 0.0 0.0 0.00 0.00 0.00 10 1017.6
20260506232223 65 0.0 0.0 0.00 0.00 0.00 10 1017.7
20260506231723 64 0.0 0.0 0.00 0.00 0.00 10 1017.7
20260506231223 63 0.0 0.0 0.00 0.00 0.00 10 1017.7
20260506230723 64 0.0 0.0 0.00 0.00 0.00 10 1017.7
20260506230223 64 0.0 0.0 0.00 0.00 0.00 10 1017.7
20260506225723 64 0.0 0.0 0.00 0.00 0.00 10 1017.8
20260506225224 63 0.0 0.0 0.00 0.00 0.00 10 1017.8
20260506224723 64 0.0 0.0 0.00 0.00 0.00 10 1017.6
20260506224223 64 0.0 0.0 0.00 0.00 0.00 10 1017.7
20260506223723 64 0.0 0.0 0.00 0.00 0.00 10 1017.6
20260506223223 64 0.0 0.0 0.00 0.00 0.00 10 1017.6
20260506222723 64 0.0 0.0 0.00 0.00 0.00 10 1017.6
20260506222223 64 0.0 0.0 0.00 0.00 0.00 10 1017.6
20260506221723 64 0.0 0.0 0.00 0.00 0.00 10 1017.8
20260506221223 64 0.0 0.0 0.00 0.00 0.00 10 1017.7
20260506220723 63 0.0 0.0 0.00 0.00 0.00 10 1017.7
20260506220223 64 0.0 0.0 0.00 0.00 0.00 10 1017.6
20260506215723 64 0.0 0.0 0.00 0.00 0.00 10 1017.6
20260506215223 64 0.0 0.0 0.00 0.00 0.00 10 1017.6
20260506214723 64 0.0 0.0 0.00 0.00 0.00 10 1017.7
20260506214223 64 0.0 0.0 0.00 0.00 0.00 10 1017.6
20260506213723 64 0.0 0.0 0.00 0.00 0.00 10 1017.6
20260506213223 64 0.0 0.0 0.00 0.00 0.00 10 1017.6
20260506212723 64 0.0 0.0 0.00 0.00 0.00 10 1017.6
20260506212223 65 0.0 0.0 0.00 0.00 0.00 10 1017.6
20260506211723 65 0.0 0.0 0.00 0.00 0.00 10 1017.6
20260506211223 65 0.0 0.0 0.00 0.00 0.00 10 1017.7
20260506210723 65 0.0 0.0 0.00 0.00 0.00 10 1017.6
20260506210223 65 0.0 0.0 0.00 0.00 0.00 10 1017.6
20260506205723 65 0.0 0.0 0.00 0.00 0.00 10 1017.6
20260506205223 65 0.0 0.0 0.00 0.00 0.00 10 1017.6
20260506204723 66 0.0 0.0 0.00 0.00 0.00 10 1017.5
20260506204223 65 0.0 0.0 0.00 0.00 0.00 10 1017.4
20260506203723 65 0.0 0.0 0.00 0.00 0.00 10 1017.3
20260506203223 65 0.0 0.0 0.00 0.00 0.00 10 1017.4
20260506202723 65 0.0 0.0 0.00 0.00 0.00 10 1017.3
20260506202223 65 0.0 0.0 0.00 0.00 0.00 10 1017.2
20260506201723 65 0.0 0.0 0.00 0.00 0.00 10 1017.0
20260506201223 66 0.0 0.0 0.00 0.00 0.00 10 1016.9
20260506200723 65 0.0 0.0 0.00 0.00 0.00 10 1016.8
20260506200223 66 0.0 0.0 0.00 0.00 0.00 10 1016.8
20260506195723 66 0.0 0.0 0.00 0.00 0.00 10 1016.7
20260506195223 66 0.0 0.0 0.00 0.00 0.00 10 1016.6
20260506194723 66 0.0 0.0 0.00 0.00 0.00 10 1016.6
20260506194223 66 0.0 0.0 0.00 0.00 0.00 10 1016.4
20260506193723 66 0.0 0.0 0.00 0.00 0.00 97 1016.4
20260506193223 67 0.0 0.0 0.00 0.00 0.00 95 1016.2
20260506192723 66 0.0 0.0 0.00 0.00 0.00 94 1016.2
20260506192223 67 0.0 0.0 0.00 0.00 0.00 93 1016.2
20260506191723 66 0.0 0.0 0.00 0.00 0.00 93 1016.1
20260506191223 66 0.0 0.0 0.00 0.00 0.00 94 1016.0
20260506190723 67 0.0 0.0 0.00 0.00 0.00 97 1016.0
20260506190223 67 0.0 0.0 0.00 0.00 0.00 10 1015.9
20260506185723 67 0.0 0.0 0.00 0.00 0.00 10 1015.9
20260506185223 66 0.0 0.0 0.00 0.00 0.00 97 1015.8
20260506184723 67 0.0 0.0 0.00 0.00 0.00 93 1015.8
20260506184223 67 0.0 0.0 0.00 0.00 0.00 94 1015.7
20260506183723 67 0.0 0.0 0.00 0.00 0.00 90 1015.6
20260506183223 67 0.0 0.0 0.00 0.00 0.00 87 1015.6
20260506182723 67 0.0 0.0 0.00 0.00 0.00 85 1015.5
20260506182223 67 0.0 0.0 0.00 0.00 0.00 86 1015.5
20260506181723 67 0.0 0.0 0.00 0.00 0.00 77 1015.4
20260506181223 68 0.0 0.0 0.00 0.00 0.00 73 1015.4
20260506180723 68 0.0 0.0 0.00 0.00 0.00 73 1015.3
20260506180223 68 0.0 0.0 0.00 0.00 0.00 68 1015.3
20260506175723 68 0.0 0.0 0.00 0.00 0.00 66 1015.1
20260506175223 68 0.0 0.0 0.00 0.00 0.00 64 1015.1
20260506174723 68 0.0 0.0 0.00 0.00 0.00 61 1015.1
20260506174223 68 0.0 0.0 0.00 0.00 0.00 60 1015.1
20260506173723 69 0.0 0.0 0.00 0.00 0.00 58 1015.0
20260506173223 69 0.0 0.0 0.00 0.00 0.00 56 1014.9
20260506172723 69 0.0 0.0 0.00 0.00 0.00 56 1014.9
20260506172223 69 0.0 0.0 0.00 0.00 0.00 53 1014.9
20260506171723 69 0.0 0.0 0.00 0.00 0.00 52 1014.9
20260506171223 69 0.0 0.0 0.00 0.00 0.00 53 1014.8
20260506170723 69 0.0 0.0 0.00 0.00 0.00 53 1014.9
20260506170223 69 0.0 0.0 0.00 0.00 0.00 56 1014.8
20260506165723 69 0.0 0.0 0.00 0.00 0.00 57 1014.7
20260506165223 69 0.0 0.0 0.00 0.00 0.00 59 1014.6
20260506164723 69 0.0 0.0 0.00 0.00 0.00 58 1014.6
20260506164223 69 0.0 0.0 0.00 0.00 0.00 60 1014.7
20260506163723 69 0.0 0.0 0.00 0.00 0.00 61 1014.8
20260506163223 69 0.0 0.0 0.00 0.00 0.00 61 1014.8
20260506162723 69 0.0 0.0 0.00 0.00 0.00 61 1014.7
20260506162223 69 0.0 0.0 0.00 0.00 0.00 60 1014.7
20260506161723 69 0.0 0.0 0.00 0.00 0.00 60 1014.7
20260506161222 69 0.0 0.0 0.00 0.00 0.00 60 1014.7
20260506160723 69 0.0 0.0 0.00 0.00 0.00 56 1014.7
20260506160223 69 0.0 0.0 0.00 0.00 0.00 55 1014.6
20260506155723 69 0.0 0.0 0.00 0.00 0.00 55 1014.7
20260506155223 69 0.0 0.0 0.00 0.00 0.00 54 1014.8
20260506154723 69 0.0 0.0 0.00 0.00 0.00 53 1014.7
20260506154222 70 0.0 0.0 0.00 0.00 0.00 53 1014.8
20260506153723 70 0.0 0.0 0.00 0.00 0.00 52 1014.7
20260506153223 70 0.0 0.0 0.00 0.00 0.00 52 1014.7
20260506152722 70 0.0 0.0 0.00 0.00 0.00 51 1014.7
20260506152223 70 0.0 0.0 0.00 0.00 0.00 51 1014.7
20260506151723 70 0.0 0.0 0.00 0.00 0.00 51 1014.8
20260506151222 70 0.0 0.0 0.00 0.00 0.00 51 1014.8
20260506150723 70 0.0 0.0 0.00 0.00 0.00 51 1014.9
20260506150222 71 0.0 0.0 0.00 0.00 0.00 52 1014.8
20260506145722 70 0.0 0.0 0.00 0.00 0.00 52 1014.8
20260506145222 70 0.0 0.0 0.00 0.00 0.00 49 1014.8
20260506144722 71 0.0 0.0 0.00 0.00 0.00 48 1014.9
20260506144222 70 0.0 0.0 0.00 0.00 0.00 48 1014.9
20260506143722 71 0.0 0.0 0.00 0.00 0.00 48 1014.9
20260506143222 71 0.0 0.0 0.00 0.00 0.00 48 1015.0
20260506142722 71 0.0 0.0 0.00 0.00 0.00 48 1014.9